Location: Al Mulaqqa?ah
(24.1833°N, 32.8833°E)
Time: 18:59:47
(UTC+00:00)

Intelsat 5-1 Rocket - Pass Details

Date: 26 September 2021
Orbit: 308 x 7555 km, 23.9° (Epoch: 15 October)

Event Time Altitude Azimuth Distance (km) Brightness Sun altitude
Rises 15:52:51 0° 273° (W) 2,038 7.9 -3.6°
Reaches altitude 10° 15:54:23 10° 269° (W) 1,319 5.8 -4.0°
Maximum altitude 15:56:59 59° 187° (S) 549 1.9 -4.6°
Drops below altitude 10° 16:02:03 10° 108° (ESE) 2,559 4.6 -5.7°
Enters shadow 16:03:40 - 106° (ESE) 3,278 5.1 -6.1°
